1499425200.21,28679,17.31,74254.3,7.93,5.11,5.63,0,*77
1499425201.45,28680,17.31,74252.8,7.97,4.63,5.01,0,*75
1499425202.65,28681,17.31,74254.8,7.97,5.33,5.77,0,*71
1499425203.82,28682,17.31,74254.8,8.01,4.49,4.89,0,*7E
1499425205.03,28683,17.31,74254.0,8.01,3.75,4.07,0,*71
1499425206.23,28684,17.31,74256.8,8.01,4.23,4.59,0,*79
1499425207.44,28685,17.31,74254.5,8.01,4.45,4.79,0,*7A
1499425208.64,28686,17.31,74254.0,8.05,4.27,4.63,0,*72
1499425209.85,28687,17.31,74254.3,8.05,4.53,4.97,0,*7B
1499425211.02,28688,17.31,74252.5,8.05,4.41,4.81,0,*70
1499425212.22,28689,17.31,74260.0,8.05,4.23,4.63,0,*79
1499425213.43,28690,17.31,74258.0,8.09,4.19,4.59,0,*7D
1499425214.63,28691,17.31,74254.0,8.09,3.85,4.31,0,*70
1499425215.83,28692,17.31,74256.3,8.09,3.71,4.19,0,*72
1499425217.06,28693,17.31,74252.3,8.11,3.97,4.41,0,*7F
1499425218.29,28694,17.31,74250.8,8.09,3.79,4.31,0,*76
1499425219.47,28695,17.31,74252.3,8.15,3.93,4.45,0,*7D
1499425220.7,28696,17.31,74258.8,8.11,4.19,4.71,0,*78
1499425221.9,28697,17.31,74256.5,8.15,4.71,5.29,0,*7F
1499425223.13,28698,17.31,74256.5,8.15,4.01,4.59,0,*71
1499425224.36,28699,17.31,74258.0,8.17,4.15,4.63,0,*7E
1499425225.59,28700,17.31,74254.8,8.17,3.97,4.53,0,*71
1499425226.8,28701,17.31,74250.3,8.19,4.15,4.75,0,*77
1499425228.04,28702,17.31,74252.0,8.19,4.05,4.67,0,*76
1499425229.27,28703,17.31,74254.8,8.21,4.07,4.71,0,*79
1499425230.51,28704,17.31,74260.3,8.19,3.97,4.75,0,*7F
1499425231.69,28705,17.31,74254.8,8.19,4.07,4.85,0,*7F
1499425232.9,28706,17.31,74252.0,8.19,3.93,4.67,0,*7A
1499425234.1,28707,17.31,74252.5,8.21,4.11,4.81,0,*75
1499425235.3,28708,17.31,74258.5,8.23,4.01,4.89,0,*71
1499425236.52,28709,17.31,74256.8,8.23,4.59,5.51,0,*79
1499425237.72,28710,17.31,74258.0,8.23,4.59,5.63,0,*70
1499425238.98,28711,17.31,74256.0,8.25,4.01,4.97,0,*70
1499425240.18,28712,17.31,74258.0,8.27,3.79,4.85,0,*7A
1499425241.38,28713,17.31,74258.3,8.27,3.93,5.05,0,*76
1499425242.57,28714,17.38,74258.5,8.27,4.07,5.23,0,*7F
1499425243.77,28715,17.31,74254.3,8.27,3.23,4.37,0,*7B
1499425244.97,28716,17.31,74254.3,8.25,3.63,4.81,0,*73
1499425246.18,28717,17.31,74254.5,8.27,4.05,5.23,0,*7E
1499425247.4,28718,17.31,74254.3,8.27,3.45,4.59,0,*7E
1499425248.63,28719,17.31,74258.0,8.27,3.45,4.79,0,*7D
1499425249.86,28720,17.31,74256.3,8.25,4.37,5.55,0,*78
1499425251.1,28721,17.31,74254.3,8.29,4.31,5.33,0,*73
1499425252.27,28722,17.31,74256.3,8.27,4.19,5.29,0,*7F
1499425253.45,28723,17.31,74256.3,8.27,4.53,5.59,0,*77
1499425254.65,28724,17.31,74256.3,8.29,4.89,5.99,0,*75
1499425255.86,28725,17.31,74256.5,8.31,4.31,5.15,0,*7A
1499425257.03,28726,17.31,74254.8,8.31,3.63,4.57,0,*7E
1499425258.24,28727,17.31,74254.5,8.29,4.15,5.11,0,*73
1499425259.42,28728,17.31,74258.5,8.31,3.63,4.57,0,*70
1499425260.64,28729,17.31,74258.8,8.29,3.23,4.19,0,*76
1499425261.87,28730,17.31,74260.3,8.27,3.79,4.63,0,*72
1499425263.1,28731,17.31,74258.8,8.27,3.97,4.67,0,*77
1499425264.29,28732,17.31,74258.3,8.27,4.67,5.49,0,*71
1499425265.53,28733,17.31,74258.0,8.25,3.89,4.71,0,*7F
1499425266.76,28734,17.31,74254.0,8.25,4.27,5.05,0,*79
1499425267.99,28735,17.31,74256.5,8.25,4.33,4.97,0,*77
1499425269.23,28736,17.31,74252.3,8.29,4.37,5.01,0,*72
1499425270.45,28737,17.31,74254.0,8.25,5.41,5.89,0,*7F
1499425271.66,28738,17.31,74254.5,8.27,6.03,6.51,0,*71
1499425272.86,28739,17.31,74248.0,8.27,6.25,6.69,0,*7F
1499425274.06,28740,17.31,74248.3,8.29,5.67,6.11,0,*75
1499425275.26,28741,17.31,74250.3,8.31,6.29,6.73,0,*70
1499425276.48,28742,17.31,74250.5,8.31,6.13,6.65,0,*7D
1499425277.74,28743,17.31,74248.8,8.33,5.93,6.43,0,*71
1499425278.95,28744,17.31,74252.3,8.33,6.07,6.73,0,*7B
1499425280.15,28745,17.38,74256.8,8.35,6.11,6.65,0,*7C
1499425281.38,28746,17.31,74256.8,8.39,5.81,6.35,0,*7C
1499425282.61,28747,17.38,74260.5,8.41,6.25,6.61,0,*7E
1499425283.84,28748,17.31,74252.5,8.41,6.03,6.35,0,*74
1499425285.09,28749,17.31,74254.3,8.41,5.77,5.93,0,*7A
1499425286.33,28750,17.31,74258.5,8.45,5.05,4.97,0,*76
1499425287.5,28751,17.31,74258.5,8.39,4.41,4.37,0,*77
1499425288.73,28752,17.31,74256.3,8.39,4.79,4.75,0,*79
1499425289.92,28753,17.31,74256.3,8.39,5.71,5.77,0,*72
1499425291.12,28754,17.31,74258.8,8.39,5.71,5.93,0,*7F
1499425292.32,28755,17.31,74256.3,8.39,4.53,4.75,0,*76
1499425293.56,28756,17.31,74254.3,8.41,4.97,5.19,0,*79
1499425294.76,28757,17.31,74256.8,8.39,4.97,5.33,0,*7F
1499425295.95,28758,17.38,74256.5,8.39,5.49,5.89,0,*73
1499425297.12,28759,17.31,74254.8,8.39,5.71,6.21,0,*78
1499425298.32,28760,17.31,74252.3,8.35,5.95,6.35,0,*71
1499425299.53,28761,17.31,74256.5,8.39,5.55,5.77,0,*75
1499425300.76,28762,17.31,74258.8,8.41,5.59,5.89,0,*74
1499425301.95,28763,17.31,74258.0,8.39,5.71,5.81,0,*78
1499425303.13,28764,17.31,74256.8,8.39,5.49,5.59,0,*71
1499425304.33,28765,17.31,74256.8,8.39,5.89,6.03,0,*70
1499425305.53,28766,17.31,74258.5,8.39,5.77,5.99,0,*72
1499425306.7,28767,17.31,74262.8,8.39,5.41,5.33,0,*76
1499425307.92,28768,17.31,74258.3,8.41,5.49,5.55,0,*7E
1499425309.1,28769,17.31,74258.8,8.39,5.71,5.71,0,*7D
1499425310.29,28770,17.31,74262.0,8.39,5.77,5.71,0,*73
1499425311.5,28771,17.31,74260.0,8.41,6.29,6.25,0,*77
1499425312.76,28772,17.38,74264.5,8.41,6.51,6.35,0,*7A
1499425313.96,28773,17.31,74260.3,8.45,6.79,6.57,0,*71
1499425315.21,28774,17.31,74260.3,8.47,6.65,6.53,0,*7D
1499425316.43,28775,17.31,74258.8,8.47,6.75,6.57,0,*79
1499425317.66,28776,17.31,74260.3,8.47,6.75,6.65,0,*7B
1499425318.91,28777,17.38,74264.8,8.51,6.73,6.61,0,*7F
1499425320.17,28778,17.38,74264.5,8.51,6.51,6.43,0,*70
1499425321.35,28779,17.31,74264.0,8.53,5.59,5.45,0,*7D
1499425322.52,28780,17.38,74264.8,8.53,5.15,4.89,0,*72
1499425323.73,28781,17.38,74266.5,8.53,4.57,4.31,0,*77
1499425324.94,28782,17.31,74266.5,8.51,4.15,4.07,0,*75
1499425326.16,28783,17.31,74264.3,8.49,3.49,3.37,0,*77
1499425327.37,28784,17.38,74266.3,8.49,3.93,3.79,0,*7D
1499425328.62,28785,17.31,74260.5,8.47,3.53,3.45,0,*71
1499425329.83,28786,17.38,74262.0,8.45,3.63,3.67,0,*73
1499425331.04,28787,17.38,74262.0,8.45,3.29,3.41,0,*78
1499425332.25,28788,17.38,74258.5,8.45,3.19,3.25,0,*76
1499425333.5,28789,17.38,74258.5,8.41,3.07,3.23,0,*7A
1499425334.74,28790,17.31,74258.5,8.41,3.07,3.25,0,*74
1499425335.96,28791,17.31,74258.3,8.39,3.11,3.37,0,*7E
1499425337.18,28792,17.31,74262.3,8.33,2.55,2.91,0,*7B
1499425338.38,28793,17.31,74258.5,8.39,2.95,3.37,0,*71
1499425339.61,28794,17.38,74262.0,8.35,2.69,3.15,0,*79
1499425340.86,28795,17.31,74258.3,8.33,2.43,2.89,0,*72
1499425342.06,28796,17.31,74256.5,8.35,2.47,2.91,0,*7A
1499425343.31,28797,17.31,74254.8,8.29,2.13,2.55,0,*7F
1499425344.56,28798,17.31,74258.3,8.29,2.39,2.85,0,*75
1499425345.79,28799,17.31,74262.5,8.27,2.17,2.55,0,*7B
1499425347.04,28800,17.31,74260.8,8.25,2.13,2.69,0,*7D
1499425348.29,28801,17.31,74260.0,8.25,2.21,2.73,0,*76
1499425349.51,28802,17.38,74260.0,8.21,2.43,2.99,0,*71
1499425350.74,28803,17.38,74262.8,8.23,2.43,2.89,0,*73
1499425351.97,28804,17.38,74258.3,8.21,2.17,2.65,0,*75
1499425353.2,28805,17.38,74260.5,8.17,1.83,2.17,0,*7A
1499425354.44,28806,17.38,74258.8,8.17,1.79,2.13,0,*78
1499425355.68,28807,17.38,74260.0,8.11,1.59,1.93,0,*76
1499425356.91,28808,17.31,74258.5,8.11,1.97,2.35,0,*74
1499425358.11,28809,17.38,74258.8,8.07,1.79,2.27,0,*71
1499425359.32,28810,17.38,74260.5,8.07,2.05,2.31,0,*76
1499425360.58,28811,17.31,74256.5,8.03,2.13,2.47,0,*75
1499425361.8,28812,17.38,74262.0,8.01,2.43,2.55,0,*72
1499425363.06,28813,17.38,74258.5,7.99,2.43,2.43,0,*7A
1499425364.25,28814,17.31,74260.3,8.01,2.65,2.65,0,*73
1499425365.48,28815,17.38,74260.5,7.97,2.43,2.51,0,*71
1499425366.68,28816,17.38,74262.3,7.97,2.09,2.31,0,*7A
1499425367.95,28817,17.31,74258.3,7.95,2.17,2.59,0,*78
1499425369.18,28818,17.38,74254.3,7.95,2.25,2.61,0,*7D
1499425370.39,28819,17.38,74258.0,7.89,2.47,2.91,0,*7A
1499425371.59,28820,17.38,74256.8,7.93,2.69,2.99,0,*7F
1499425372.83,28821,17.38,74258.3,7.89,2.47,2.81,0,*70
1499425374.03,28822,17.31,74254.5,7.89,2.91,3.19,0,*78
1499425375.27,28823,17.38,74256.8,7.85,3.15,3.45,0,*71
1499425376.51,28824,17.31,74256.3,7.85,2.17,2.43,0,*72
1499425377.76,28825,17.31,74256.8,7.83,2.73,2.89,0,*71
1499425378.95,28826,17.31,74252.5,7.81,2.27,2.61,0,*77
1499425380.18,28827,17.31,74252.5,7.81,2.05,2.39,0,*7B
1499425381.4,28828,17.38,74252.3,7.79,1.89,2.25,0,*79
1499425382.66,28829,17.38,74250.5,7.77,2.09,2.51,0,*7E
1499425383.92,28830,17.31,74248.8,7.77,2.09,2.59,0,*7E
1499425385.12,28831,17.38,74248.0,7.75,2.27,2.77,0,*7D
1499425386.35,28832,17.31,74252.0,7.73,2.27,2.77,0,*78
1499425387.57,28833,17.38,74252.5,7.71,2.13,2.73,0,*78
1499425388.79,28834,17.38,74256.0,7.71,2.73,3.37,0,*78
1499425390.01,28835,17.31,74256.0,7.67,2.85,3.33,0,*73
1499425391.22,28836,17.31,74256.3,7.67,2.47,2.95,0,*73
1499425392.44,28837,17.38,74260.8,7.67,2.59,3.15,0,*74
1499425393.68,28838,17.38,74264.5,7.65,3.11,3.81,0,*79
1499425394.9,28839,17.38,74264.8,7.65,3.11,3.85,0,*7C
1499425396.1,28840,17.38,74264.3,7.65,3.59,4.23,0,*75
1499425397.31,28841,17.38,74266.8,7.65,3.29,3.81,0,*7C
1499425398.54,28842,17.38,74266.8,7.65,2.91,3.49,0,*79
1499425399.8,28843,17.38,74260.3,7.65,2.81,3.41,0,*71
1499425401.02,28844,17.38,74262.5,7.65,2.69,3.29,0,*7E
1499425402.26,28845,17.38,74264.0,7.63,2.81,3.41,0,*71
1499425403.51,28846,17.31,74256.5,7.61,2.77,3.49,0,*71
1499425404.77,28847,17.38,74260.5,7.61,2.77,3.33,0,*7D
1499425405.99,28848,17.38,74260.5,7.59,2.77,3.37,0,*7D
1499425407.25,28849,17.38,74260.8,7.57,3.03,3.45,0,*75
1499425408.51,28850,17.38,74262.5,7.57,3.03,3.45,0,*7D
1499425409.72,28851,17.38,74262.5,7.55,2.99,3.41,0,*78
1499425410.93,28852,17.38,74260.0,7.55,2.89,3.25,0,*78
1499425412.19,28853,17.38,74258.0,7.53,2.81,3.15,0,*74
1499425413.37,28854,17.31,74252.8,7.51,2.65,2.99,0,*7E
1499425414.57,28855,17.38,74254.0,7.51,2.95,3.33,0,*71
1499425415.77,28856,17.38,74258.3,7.51,2.73,2.95,0,*77
1499425417.02,28857,17.38,74256.3,7.47,2.81,3.03,0,*72
1499425418.28,28858,17.31,74252.0,7.47,3.11,3.33,0,*76
1499425419.5,28859,17.38,74256.8,7.47,2.95,3.19,0,*72
1499425420.7,28860,17.38,74260.3,7.41,3.25,3.53,0,*7A
1499425421.92,28861,17.38,74258.0,7.41,3.37,3.49,0,*73
1499425423.14,28862,17.38,74260.8,7.41,3.37,3.37,0,*79
1499425424.39,28863,17.38,74260.0,7.39,3.33,3.37,0,*73
1499425425.62,28864,17.38,74256.0,7.39,3.33,3.25,0,*77
1499425426.83,28865,17.38,74262.0,7.37,3.11,2.99,0,*7E
1499425428.03,28866,17.38,74260.3,7.37,3.29,3.11,0,*77
1499425429.26,28867,17.38,74262.5,7.37,3.53,3.23,0,*7A
1499425430.52,28868,17.38,74260.8,7.35,3.67,3.41,0,*74
1499425431.74,28869,17.38,74258.5,7.35,4.01,3.63,0,*72
1499425432.95,28870,17.38,74258.0,7.33,3.29,3.07,0,*73
1499425434.13,28871,17.38,74260.3,7.33,3.59,3.25,0,*75
1499425435.34,28872,17.38,74260.8,7.33,4.11,3.75,0,*78
1499425436.54,28873,17.38,74262.8,7.37,3.89,3.53,0,*7F
1499425437.75,28874,17.38,74256.3,7.33,3.07,2.91,0,*75
1499425439.01,28875,17.38,74258.0,7.35,2.81,2.73,0,*71
1499425440.21,28876,17.38,74258.5,7.33,2.81,2.95,0,*7C
1499425441.45,28877,17.38,74258.0,7.33,2.47,2.59,0,*77
1499425442.68,28878,17.38,74258.8,7.33,2.69,3.03,0,*7A
1499425443.93,28879,17.38,74256.5,7.31,3.03,3.49,0,*7A
1499425445.15,28880,17.38,74258.8,7.31,2.61,3.23,0,*75
1499425446.41,28881,17.38,74258.0,7.31,2.43,3.11,0,*75
1499425447.65,28882,17.38,74256.8,7.31,2.73,3.33,0,*75
1499425448.88,28883,17.38,74252.8,7.29,2.85,3.37,0,*70
1499425450.09,28884,17.38,74258.0,7.29,3.49,3.81,0,*7B
1499425451.29,28885,17.38,74256.3,7.31,3.59,3.81,0,*72
1499425452.46,28886,17.38,74258.3,7.29,3.25,3.55,0,*7A
1499425453.69,28887,17.38,74254.5,7.31,3.25,3.45,0,*73
1499425454.93,28888,17.38,74250.8,7.29,3.15,3.15,0,*73
1499425456.16,28889,17.38,74254.3,7.27,2.95,2.85,0,*7D
1499425457.41,28890,17.38,74256.5,7.27,2.85,2.81,0,*70
1499425458.62,28891,17.38,74258.0,7.27,2.61,2.61,0,*75
1499425459.85,28892,17.38,74256.5,7.25,2.81,2.81,0,*74
1499425461.09,28893,17.38,74252.5,7.21,2.39,2.43,0,*7C
1499425462.32,28894,17.38,74254.3,7.21,2.43,2.59,0,*7D
1499425463.57,28895,17.38,74258.0,7.19,2.21,2.39,0,*75
1499425464.8,28896,17.38,74254.0,7.21,2.25,2.47,0,*70
1499425466.03,28897,17.38,74252.5,7.19,2.31,2.51,0,*78
1499425467.22,28898,17.38,74250.0,7.17,2.21,2.31,0,*7E
1499425468.48,28899,17.38,74252.3,7.15,2.05,2.25,0,*7E
1499425469.74,28900,17.38,74250.8,7.15,2.17,2.25,0,*7C
1499425470.97,28901,17.38,74246.0,7.13,2.39,2.47,0,*73
1499425472.2,28902,17.38,74246.8,7.13,2.17,2.13,0,*7D
1499425473.43,28903,17.38,74252.8,7.13,2.13,2.05,0,*7F
1499425474.67,28904,17.38,74248.8,7.11,2.25,2.25,0,*7D
1499425475.92,28905,17.38,74256.5,7.11,2.25,2.21,0,*78
1499425477.15,28906,17.38,74250.8,7.09,2.17,1.97,0,*7D
1499425478.39,28907,17.38,74252.5,7.07,1.67,1.71,0,*7E
1499425479.64,28908,17.38,74252.0,7.07,1.93,1.97,0,*72
1499425480.87,28909,17.38,74256.5,7.07,1.79,2.05,0,*7F
1499425482.1,28910,17.38,74252.5,7.05,2.25,2.39,0,*70
1499425483.35,28911,17.38,74250.8,7.03,1.89,2.17,0,*7E
1499425484.58,28912,17.38,74248.5,7.03,1.83,2.13,0,*73
1499425485.79,28913,17.38,74262.0,7.03,2.27,2.65,0,*7E
1499425487.02,28914,17.38,74256.5,7.03,2.35,2.73,0,*7D
1499425488.27,28915,17.38,74258.5,7.03,2.47,2.73,0,*79
1499425489.5,28916,17.38,74258.8,6.99,2.91,3.19,0,*7E
1499425490.75,28917,17.38,74250.3,6.99,2.85,3.15,0,*76
1499425491.93,28918,17.38,74254.0,6.97,2.99,3.25,0,*79
1499425493.13,28919,17.38,74252.5,6.99,2.61,2.91,0,*7F
1499425494.36,28920,17.38,74260.0,6.97,2.51,2.81,0,*79
1499425495.58,28921,17.38,74262.5,6.99,3.19,3.63,0,*76
1499425496.79,28922,17.38,74260.3,6.97,3.03,3.29,0,*7E
1499425497.99,28923,17.38,74260.0,6.97,2.99,3.41,0,*73
1499425499.22,28924,17.38,74258.0,6.99,2.95,3.33,0,*73
1499425500.44,28925,17.38,74256.3,6.97,3.23,3.53,0,*76
1499425501.62,28926,17.38,74258.0,6.97,3.25,3.59,0,*79
1499425502.84,28927,17.38,74256.0,6.99,3.29,3.53,0,*70
1499425504.02,28928,17.38,74258.0,6.97,3.29,3.59,0,*7B
1499425505.25,28929,17.38,74260.8,6.97,3.23,3.41,0,*79
1499425506.45,28930,17.38,74258.5,6.97,3.11,3.29,0,*7E
1499425507.66,28931,17.38,74256.3,6.93,3.25,3.45,0,*76
1499425508.9,28932,17.38,74256.8,6.95,3.53,3.71,0,*75
1499425510.13,28933,17.38,74262.5,6.93,3.37,3.49,0,*7B
1499425511.38,28934,17.38,74260.3,6.95,3.49,3.71,0,*78
1499425512.6,28935,17.38,74260.3,6.93,3.33,3.49,0,*79
1499425513.83,28936,17.38,74262.0,6.95,3.41,3.59,0,*78
1499425515.03,28937,17.38,74260.3,6.93,3.37,3.55,0,*72
1499425516.26,28938,17.38,74262.0,6.93,3.23,3.45,0,*79
1499425517.48,28939,17.38,74256.3,6.91,2.73,2.95,0,*72
1499425518.71,28940,17.38,74258.5,6.91,2.95,3.23,0,*78
1499425519.95,28941,17.38,74250.8,6.91,3.07,3.25,0,*75
1499425521.16,28942,17.38,74252.8,6.91,3.59,4.07,0,*7A
1499425522.34,28943,17.38,74250.8,6.89,4.15,4.45,0,*7B
1499425523.55,28944,17.38,74252.0,6.93,4.41,4.71,0,*71
1499425524.76,28945,17.38,74248.8,6.91,4.19,4.41,0,*7C
1499425525.99,28946,17.38,74254.5,6.91,4.19,4.31,0,*78
1499425527.17,28947,17.38,74252.3,6.93,4.15,4.27,0,*70
1499425528.34,28948,17.38,74254.8,6.93,4.07,4.19,0,*71
1499425529.54,28949,17.38,74252.8,6.93,4.05,4.15,0,*7E
1499425530.75,28950,17.38,74256.3,6.93,3.89,4.05,0,*74
1499425531.93,28951,17.38,74256.5,6.93,3.93,3.89,0,*7D
1499425533.14,28952,17.38,74256.5,6.91,3.81,3.89,0,*7F
1499425534.4,28953,17.38,74260.5,6.91,3.97,4.05,0,*7A
1499425535.64,28954,17.38,74260.5,6.91,4.05,4.07,0,*73
1499425536.87,28955,17.38,74256.0,6.91,3.97,4.15,0,*7D
1499425538.07,28956,17.38,74258.0,6.91,4.07,4.19,0,*7C
1499425539.27,28957,17.38,74258.8,6.91,4.19,4.19,0,*72
1499425540.48,28958,17.38,74256.0,6.91,4.15,4.15,0,*7D
1499425541.74,28959,17.38,74254.0,6.91,3.79,3.75,0,*70
1499425542.95,28960,17.38,74254.3,6.91,3.81,3.89,0,*7E
1499425544.13,28961,17.38,74258.0,6.89,3.85,3.85,0,*7E
1499425545.31,28962,17.38,74254.3,6.89,4.33,4.37,0,*79
1499425546.5,28963,17.38,74256.3,6.89,4.37,4.37,0,*7C
1499425547.69,28964,17.38,74256.0,6.89,3.93,3.89,0,*70
1499425548.91,28965,17.38,74256.8,6.89,4.01,4.01,0,*7A
1499425550.1,28966,17.38,74258.3,6.89,3.85,3.89,0,*75
1499425551.32,28967,17.38,74254.5,6.87,3.71,3.63,0,*75
1499425552.55,28968,17.38,74254.0,6.87,3.85,3.97,0,*7A
1499425553.78,28969,17.38,74250.3,6.87,3.89,3.97,0,*77
1499425554.98,28970,17.38,74254.8,6.85,4.01,4.07,0,*74
1499425556.21,28971,17.38,74252.3,6.85,4.31,4.31,0,*73
1499425557.46,28972,17.38,74254.8,6.87,3.97,4.01,0,*7A
1499425558.67,28973,17.38,74258.5,6.85,4.23,4.31,0,*72
1499425559.89,28974,17.38,74248.8,6.87,3.49,3.29,0,*72
1499425561.16,28975,17.38,74252.0,6.87,3.15,3.15,0,*75
1499425562.39,28976,17.38,74248.3,6.83,3.45,3.33,0,*73
1499425563.64,28977,17.38,74244.0,6.81,3.45,3.45,0,*71
1499425564.89,28978,17.38,74248.8,6.81,3.23,3.23,0,*7E
1499425566.08,28979,17.38,74246.0,6.81,2.95,2.99,0,*73
1499425567.28,28980,17.38,74250.3,6.81,2.99,2.95,0,*75
1499425568.51,28981,17.38,74248.8,6.79,3.07,3.11,0,*78
1499425569.73,28982,17.38,74244.8,6.75,2.77,1.13,0,*71
1499425570.97,28983,17.38,74248.5,6.71,2.39,2.51,0,*7B
1499425572.18,28984,17.38,74252.0,6.71,3.25,3.49,0,*78
1499425573.38,28985,17.38,74248.8,6.69,3.55,3.89,0,*7B
1499425574.57,28986,17.38,74252.5,6.69,3.55,3.93,0,*73
1499425575.83,28987,17.38,74250.3,6.69,3.75,3.97,0,*74
1499425577.08,28988,17.38,74242.0,6.69,3.45,3.67,0,*77
1499425578.32,28989,17.38,74246.8,6.67,3.11,3.33,0,*78
1499425579.53,28990,17.38,74246.3,6.67,3.11,3.29,0,*7B
1499425580.76,28991,17.38,74250.3,6.67,3.45,3.67,0,*71
1499425581.98,28992,17.38,74250.5,6.65,3.85,3.97,0,*73
1499425583.19,28993,17.38,74252.8,6.65,3.59,3.89,0,*7C
1499425584.39,28994,17.38,74248.8,6.63,3.41,3.63,0,*70
1499425585.63,28995,17.38,74250.0,6.63,3.75,3.97,0,*7D
1499425586.82,28996,17.38,74246.8,6.63,3.53,3.63,0,*71
1499425588.04,28997,17.38,74244.8,6.65,3.53,3.63,0,*76
1499425589.24,28998,17.38,74246.0,6.63,3.53,3.59,0,*76
1499425590.44,28999,17.38,74252.3,6.63,3.59,3.75,0,*73
1499425591.62,29000,17.38,74248.8,6.63,3.63,3.85,0,*7D
1499425592.85,29001,17.38,74248.3,6.63,3.41,3.75,0,*73
1499425594.06,29002,17.38,74248.3,6.59,3.25,3.71,0,*7F
1499425595.29,29003,17.38,74254.3,6.61,3.49,3.81,0,*70
1499425596.49,29004,17.38,74252.3,6.59,3.63,3.97,0,*73
1499425597.67,29005,17.38,74254.5,6.59,3.81,4.27,0,*72
1499425598.85,29006,17.38,74248.8,6.59,3.55,3.93,0,*70
1499425600.02,29007,17.38,74248.0,6.59,3.55,3.85,0,*76
1499425601.26,29008,17.38,74254.8,6.59,3.37,3.75,0,*72
1499425602.5,29009,17.38,74256.5,6.59,3.15,3.45,0,*70
1499425603.7,29010,17.38,74252.5,6.57,3.55,3.81,0,*7A
1499425604.94,29011,17.38,74254.5,6.57,3.67,3.89,0,*72
1499425606.17,29012,17.38,74256.8,6.57,3.45,3.81,0,*79
1499425607.4,29013,17.38,74252.3,6.57,3.53,3.81,0,*7F
1499425608.62,29014,17.38,74254.3,6.53,3.55,4.01,0,*75
1499425609.85,29015,17.38,74254.0,6.57,3.71,4.15,0,*73
1499425611.07,29016,17.38,74254.0,6.57,3.89,4.37,0,*77
1499425612.28,29017,17.38,74256.3,6.57,3.89,4.37,0,*76
1499425613.48,29018,17.38,74258.3,6.57,3.59,4.15,0,*74
1499425614.72,29019,17.38,74256.8,6.57,3.67,4.27,0,*79
1499425615.95,29020,17.38,74254.3,6.57,3.79,4.33,0,*79
1499425617.16,29021,17.38,74254.0,6.53,3.89,4.49,0,*7E
1499425618.39,29022,17.38,74250.8,6.57,3.79,4.33,0,*7B
1499425619.6,29023,17.38,74254.0,6.57,3.89,4.49,0,*78
1499425620.83,29024,17.38,74252.8,6.53,3.79,4.33,0,*79
1499425622.06,29025,17.38,74254.3,6.53,3.63,4.01,0,*72
1499425623.29,29026,17.38,74254.5,6.53,3.75,4.11,0,*77
1499425624.49,29027,17.38,74252.3,6.53,3.85,4.23,0,*78
1499425625.71,29028,17.38,74258.5,6.53,4.01,4.45,0,*7C
1499425626.92,29029,17.38,74254.8,6.53,4.19,4.57,0,*77
1499425628.12,29030,17.38,74256.5,6.57,4.23,4.49,0,*7D
1499425629.33,29031,17.38,74260.8,6.53,4.11,4.37,0,*70
1499425630.54,29032,17.38,74262.0,6.57,4.33,4.53,0,*75
1499425631.74,29033,17.38,74262.0,6.53,4.23,4.57,0,*75
1499425632.97,29034,17.38,74260.0,6.53,4.45,4.67,0,*71
1499425634.21,29035,17.38,74256.5,6.53,4.31,4.57,0,*70
1499425635.41,29036,17.38,74258.5,6.53,4.19,4.45,0,*7A
1499425636.64,29037,17.38,74260.3,6.53,4.37,4.59,0,*7A
1499425637.84,29038,17.38,74256.8,6.53,4.19,4.45,0,*74
1499425639.04,29039,17.38,74256.3,6.51,4.23,4.49,0,*72
1499425640.27,29040,17.38,74258.3,6.51,4.01,4.23,0,*70
1499425641.51,29041,17.38,74256.8,6.51,4.37,4.59,0,*79
1499425642.73,29042,17.38,74256.3,6.51,4.45,4.59,0,*7F
1499425643.94,29043,17.38,74262.8,6.49,4.37,4.59,0,*72
1499425645.17,29044,17.38,74256.0,6.51,4.33,4.67,0,*75
1499425646.4,29045,17.38,74260.5,6.51,4.49,4.67,0,*79
1499425647.63,29046,17.38,74262.0,6.51,4.49,4.71,0,*7D
1499425648.86,29047,17.38,74258.3,6.51,4.57,4.79,0,*7B
1499425650.09,29048,17.38,74256.5,6.51,4.49,4.79,0,*7B
1499425651.36,29049,17.38,74256.0,6.51,4.67,5.01,0,*78
1499425652.62,29050,17.38,74258.3,6.51,4.59,4.93,0,*77
1499425653.83,29051,17.38,74256.5,6.53,4.33,4.57,0,*70
1499425655.06,29052,17.38,74260.5,6.51,4.37,4.59,0,*7B
1499425656.32,29053,17.38,74256.8,6.53,4.59,4.93,0,*76
1499425657.55,29054,17.38,74260.0,6.53,4.49,4.79,0,*74
1499425658.77,29055,17.38,74264.3,6.53,4.45,4.79,0,*79
1499425660.0,29056,17.38,74262.5,6.53,3.97,4.33,0,*7C
1499425661.21,29057,17.38,74264.0,6.53,4.19,4.45,0,*7D
1499425662.41,29058,17.38,74264.8,6.53,4.81,5.15,0,*77
1499425663.66,29059,17.38,74260.5,6.53,5.01,5.27,0,*7E
1499425664.89,29060,17.38,74262.5,6.53,4.59,4.89,0,*7D
1499425666.12,29061,17.38,74258.5,6.57,4.63,4.81,0,*79
1499425667.38,29062,17.38,74262.0,6.53,4.59,4.93,0,*74
1499425668.62,29063,17.38,74258.3,6.53,4.37,4.67,0,*76
1499425669.85,29064,17.38,74260.3,6.57,4.33,4.63,0,*75
1499425671.06,29065,17.38,74260.0,6.53,4.07,4.57,0,*70
1499425672.31,29066,17.38,74260.8,6.57,4.01,4.59,0,*7F
1499425673.57,29067,17.38,74256.0,6.53,4.31,4.79,0,*7B
1499425674.79,29068,17.38,74258.3,6.57,4.53,5.07,0,*7C
1499425676.02,29069,17.38,74256.5,6.57,4.49,4.93,0,*7A
1499425677.23,29070,17.38,74254.5,6.57,3.93,4.41,0,*7D
1499425678.43,29071,17.38,74256.8,6.53,3.85,4.45,0,*7B
1499425679.63,29072,17.38,74258.3,6.53,4.45,4.89,0,*73
1499425680.87,29073,17.38,74258.3,6.57,4.53,4.97,0,*7E
1499425682.1,29074,17.38,74258.5,6.57,4.27,4.63,0,*71
1499425683.33,29075,17.38,74262.0,6.57,4.23,4.59,0,*7D
1499425684.57,29076,17.38,74256.5,6.57,4.11,4.59,0,*7F
1499425685.77,29077,17.38,74258.3,6.53,4.07,4.49,0,*7C
1499425686.98,29078,17.38,74256.5,6.53,4.11,4.57,0,*7B
1499425688.19,29079,17.38,74254.0,6.53,3.89,4.37,0,*7A
1499425689.42,29080,17.38,74260.5,6.53,3.85,4.31,0,*76
1499425690.65,29081,17.38,74256.8,6.53,3.97,4.37,0,*72
1499425691.88,29082,17.38,74254.0,6.51,4.01,4.37,0,*7B
1499425693.11,29083,17.38,74254.5,6.51,3.79,4.11,0,*76
1499425694.34,29084,17.38,74258.0,6.51,3.97,4.37,0,*75
1499425695.55,29085,17.38,74256.0,6.51,4.11,4.49,0,*74
1499425696.78,29086,17.38,74256.5,6.51,4.19,4.67,0,*73
1499425697.99,29087,17.38,74260.3,6.49,4.15,4.67,0,*77
1499425699.22,29088,17.38,74258.0,6.51,4.31,4.81,0,*7F
1499425700.46,29089,17.38,74260.3,6.51,4.23,4.71,0,*72
1499425701.67,29090,17.38,74262.5,6.51,4.11,4.57,0,*7F
1499425702.9,29091,17.38,74258.5,6.51,4.11,4.59,0,*70
1499425704.13,29092,17.38,74262.3,6.51,3.97,4.49,0,*7B
1499425705.36,29093,17.38,74260.0,6.51,4.23,4.67,0,*7E
1499425706.59,29094,17.38,74260.3,6.51,4.01,4.49,0,*75
1499425707.82,29095,17.38,74260.0,6.53,4.01,4.57,0,*79
1499425709.06,29096,17.38,74258.8,6.51,4.37,4.93,0,*75
1499425710.26,29097,17.38,74262.8,6.51,4.23,4.89,0,*7A
1499425711.46,29098,17.38,74260.0,6.51,4.33,4.81,0,*7C
1499425712.67,29099,17.38,74258.8,6.49,4.19,4.67,0,*74
1499425713.86,29100,17.38,74260.3,6.49,3.93,4.33,0,*71
1499425715.06,29101,17.38,74256.3,6.49,3.71,4.07,0,*7B
1499425716.24,29102,17.38,74252.8,6.49,3.81,4.27,0,*75
1499425717.41,29103,17.38,74252.5,6.49,3.81,4.19,0,*79
1499425718.64,29104,17.38,74252.5,6.47,4.05,4.49,0,*7E
1499425719.82,29105,17.38,74252.8,6.49,4.27,4.57,0,*7E
1499425721.01,29106,17.38,74252.0,6.49,4.07,4.41,0,*78
1499425722.21,29107,17.38,74252.8,6.47,3.81,4.15,0,*7F
1499425723.39,29108,17.38,74252.0,6.45,3.89,4.23,0,*7F
1499425724.59,29109,17.38,74252.8,6.45,3.71,3.93,0,*75
1499425725.77,29110,17.38,74250.8,6.45,3.81,4.11,0,*7F
1499425726.94,29111,17.38,74254.8,6.45,3.93,4.23,0,*7C
1499425728.14,29112,17.38,74252.5,6.41,4.01,4.27,0,*73
1499425729.34,29113,17.38,74250.3,6.41,4.01,4.27,0,*72
1499425730.51,29114,17.38,74250.3,6.41,3.89,4.11,0,*77
1499425731.7,29115,17.38,74254.0,6.41,3.85,4.07,0,*7D